This demonstration page uses our WeatherBlox Daily Observations layout. Learn more.

Left ArrowRight Arrow

Hourly Observations for February 22, 2015

Temp ( °F °C ) Dew Point ( °F °C ) Humidity (%) Winds ( mph kmh ) Pressure ( in mb ) Visibility ( mi km ) Precip ( " mm )
12:53 am 00:53 Clear with Mist and Fog 17 -8.3 15 -9.4 92 92 N N/A 30.19 1023 3 4.82802 N/A
1:53 am 01:53 Clear with Mist and Fog 16 -8.9 14 -10 92 92 N N/A 30.21 1023 3 4.82802 N/A
2:53 am 02:53 Clear with Mist and Fog 14 -10 12 -11.1 92 92 N N/A 30.21 1023 2 3.21868 N/A
3:13 am 03:13 Clear with Mist and Fog 11 -11.7 9 -12.8 92 92 N N/A 30.24 1024 3 4.82802 N/A
3:53 am 03:53 Clear with Mist and Fog 9 -12.8 7 -13.9 92 92 NNE 3 6 30.22 1023 2.5 4.02335 N/A
4:05 am 04:05 Clear with Mist and Fog 10 -12.2 7 -13.9 87 87 N N/A 30.24 1024 3 4.82802 N/A
4:53 am 04:53 Mostly Cloudy with Mist and Fog 9 -12.8 7 -13.9 92 92 N N/A 30.25 1024 4 6.43736 N/A
5:53 am 05:53 Cloudy with Mist and Fog 13 -10.6 10 -12.2 88 88 N N/A 30.27 1025 4 6.43736 N/A
6:53 am 06:53 Cloudy with Mist and Fog 18 -7.8 16 -8.9 92 92 NW 3 6 30.28 1025 4 6.43736 N/A
7:37 am 07:37 Cloudy with Mist and Fog 18 -7.8 16 -8.9 92 92 N N/A 30.33 1027 2.5 4.02335 N/A
7:53 am 07:53 Cloudy with Mist and Fog 19 -7.2 18 -7.8 96 96 N N/A 30.31 1026 2.5 4.02335 N/A
8:53 am 08:53 Cloudy with Mist and Fog 21 -6.1 19 -7.2 92 92 N N/A 30.33 1027 2.5 4.02335 N/A
9:45 am 09:45 Cloudy with Mist and Fog 23 -5 21 -6.1 92 92 WNW 3 6 30.36 1028 3 4.82802 N/A
9:53 am 09:53 Cloudy with Mist and Fog 24 -4.4 21 -6.1 88 88 N N/A 30.35 1028 3 4.82802 N/A
10:53 am 10:53 Cloudy with Haze 27 -2.8 22 -5.6 81 81 SW 6 9 30.37 1028 5 8.0467 N/A
11:53 am 11:53 Cloudy 30 -1.1 23 -5 75 75 N N/A 30.37 1028 7 11.26538 N/A
12:53 pm 12:53 Cloudy with Haze 33 0.6 25 -3.9 72 72 W 5 7 30.37 1029 6 9.65604 N/A
1:19 pm 13:19 Cloudy with Haze 33 0.6 25 -3.9 72 72 W 6 9 30.39 1029 6 9.65604 N/A
1:53 pm 13:53 Cloudy with Haze 32 undefined 26 -3.3 79 79 NW 8 13 30.37 1028 5 8.0467 N/A
2:53 pm 14:53 Cloudy 32 undefined 23 -5 69 69 NW 10 17 30.38 1029 7 11.26538 N/A
3:37 pm 15:37 Cloudy 32 undefined 23 -5 69 69 WNW 6 9 30.39 1029 7 11.26538 N/A
3:53 pm 15:53 Cloudy 32 undefined 23 -5 69 69 NW 8 13 30.38 1029 7 11.26538 N/A
4:07 pm 16:07 Cloudy with Haze 32 undefined 23 -5 69 69 NW 10 17 30.39 1029 6 9.65604 N/A
4:20 pm 16:20 Cloudy with Haze 32 undefined 24 -4.4 73 73 WNW 10 17 30.39 1029 5 8.0467 N/A
4:53 pm 16:53 Cloudy with Haze 31 -0.6 23 -5 72 72 NW 13 20 30.39 1029 5 8.0467 N/A
5:53 pm 17:53 Cloudy with Haze 30 -1.1 23 -5 75 75 WNW 12 19 30.41 1030 5 8.0467 N/A
6:53 pm 18:53 Cloudy 29 -1.7 20 -6.7 69 69 NW 13 20 30.44 1031 8 12.87472 N/A
7:53 pm 19:53 Partly Cloudy 26 -3.3 19 -7.2 75 75 NW 8 13 30.47 1032 8 12.87472 N/A
8:53 pm 20:53 Mostly Cloudy 25 -3.9 17 -8.3 72 72 NNW 7 11 30.48 1032 9 14.48406 N/A
9:53 pm 21:53 Cloudy 24 -4.4 13 -10.6 62 62 NNW 10 17 30.5 1033 10 16.0934 N/A
10:53 pm 22:53 Cloudy 23 -5 14 -10 68 68 NNW 9 15 30.53 1034 10 16.0934 N/A
11:53 pm 23:53 Cloudy 21 -6.1 11 -11.7 65 65 N 13 20 30.55 1035 10 16.0934 N/A

Powered by AerisWeather